Location: Newark
(45.5000°N, 11.4167°E)
Time: 22:58:54
(UTC+00:00)

Transit 2A Rocket - Pass Details

Date: 31 August 2019
Orbit: 592 x 911 km, 66.7° (Epoch: 22 September)

Event Time Altitude Azimuth Distance (km) Brightness Sun altitude
Rises 23:39:00 0° 333° (NNW) 3,027 8.8 -35.8°
Reaches altitude 10° 23:41:45 10° 347° (NNW) 2,060 7.9 -35.7°
Enters shadow 23:43:53 20° 10° (N) 1,473 7.1 -35.6°
Maximum altitude 23:45:33 25° 43° (NE) 1,278 - -35.6°
Drops below altitude 10° 23:49:09 10° 99° (E) 1,951 - -35.5°
Sets 23:51:41 0° 113° (ESE) 2,832 - -35.4°
